Flag for Bosnia-Herzegovina Weather past 2 weeks in Mostar, Bosnia-Herzegovina

Now
48 °F

Rain. Mostly cloudy.


Feels Like: 46 °F
Forecast: 39 / 57 °F
Wind: 6 mph from North

Location: Mostar

Current Time: Mar 2, 2015 at 9:01:03 PM

Latest Report: Mar 2, 2015 at 8:00 PM


Visibility: 4 mi

Pressure: 29.92 "Hg

Humidity: 100%

Dew point: 48 °F

Location of MostarLocation

Historic Weather in Mostar — Graph

°F

Mostar temperature yesterday

Maximum temperature yesterday: 61 °F (at 1:30 PM)
Minimum temperature yesterday: 45 °F (at 3:00 AM)
Average temperature yesterday: 51 °F

Past Weeks' High & Low Weather Summary

 TemperatureHumidityPressure
High63 °F (Feb 16, 2:30 PM)100% (Feb 16, 4:00 AM)30.54 "Hg (Feb 16, 4:00 AM)
Low23 °F (Feb 20, 6:30 AM)11% (Feb 19, 2:30 PM)29.53 "Hg (Feb 22, 3:30 PM)
Average48 °F63%29.98 "Hg
* Reported Feb 15 8:00 PM — Mar 2 8:00 PM, Mostar, Weather by CustomWeather, © 2015

Note: Actual official high and low records may vary slightly from our data, if they occured in-between our weather recording intervals... More about our weather records

Advertising

Mostar weather history for previous 24 hours

 ConditionsComfort  
Time TempWeatherWind HumidityBarometerVisibility
8:00 PM
Mon, Mar 2
48 °FRain. Mostly cloudy.6 mph100%29.92 "Hg4 mi
7:00 PM48 °FRain. Mostly cloudy.7 mph94%29.92 "Hg4 mi
6:00 PM50 °FRain. Partly cloudy.6 mph88%29.95 "Hg4 mi
5:00 PM52 °FLight rain. Broken clouds.9 mph82%29.92 "HgN/A
4:00 PM55 °FLight rain. Partly sunny.9 mph63%29.95 "HgN/A
3:30 PM55 °FBroken clouds.13 mph59%29.95 "HgN/A
3:00 PM57 °FPartly sunny.10 mph55%29.92 "HgN/A
2:30 PM57 °FPartly sunny.13 mph55%29.95 "HgN/A
2:00 PM57 °FBroken clouds.12 mph55%29.95 "HgN/A
1:30 PM57 °FBroken clouds.9 mph59%29.98 "HgN/A
1:00 PM57 °FBroken clouds.8 mph59%29.98 "HgN/A
12:30 PM57 °FBroken clouds.6 mph59%29.98 "HgN/A
12:00 PM55 °FBroken clouds.3 mph63%30.01 "HgN/A
11:30 AM54 °FPartly sunny.2 mph67%30.01 "HgN/A
11:00 AM54 °FBroken clouds.5 mph67%30.01 "HgN/A
10:30 AM52 °FBroken clouds.3 mph67%30.01 "HgN/A
10:00 AM48 °FBroken clouds.2 mph82%30.04 "HgN/A
9:30 AM46 °FBroken clouds.1 mph82%30.04 "HgN/A
9:00 AM46 °FBroken clouds.3 mph82%30.07 "HgN/A
8:30 AM45 °FBroken clouds.1 mph87%30.07 "HgN/A
8:00 AM43 °FBroken clouds.3 mph93%30.07 "HgN/A
7:30 AM41 °FBroken clouds.1 mph93%30.07 "HgN/A
7:00 AM41 °FBroken clouds.1 mph93%30.07 "HgN/A
6:30 AM41 °FBroken clouds.1 mph93%30.04 "HgN/A
6:00 AM39 °FPassing clouds.3 mph100%30.04 "HgN/A
5:00 AM41 °FPassing clouds.2 mph93%30.04 "HgN/A
4:30 AM41 °FPassing clouds.3 mph93%30.04 "HgN/A
3:00 AM41 °FPassing clouds.1 mph93%30.04 "HgN/A
2:00 AM43 °FPartly cloudy.2 mph87%30.07 "HgN/A
1:00 AM41 °FPassing clouds.1 mph93%30.07 "HgN/A
12:00 AM41 °FPassing clouds.2 mph87%30.07 "HgN/A
11:00 PM
Sun, Mar 1
45 °FPassing clouds.1 mph81%30.07 "HgN/A
10:00 PM46 °FPassing clouds.2 mph76%30.04 "HgN/A
9:00 PM48 °FPassing clouds.3 mph76%30.04 "HgN/A
Weather by CustomWeather, © 2015

See weather overviewHow to use our weather pages